Regional Weather Roundup
Issued by NWS

Home | Current Version | Previous Version | Text Only | Print | Product List | Glossary On
Versions: 1 2 3 4 5 6 7 8 9 10 11 12 13 14 15 16 17 18 19 20 21 22 23 24 25 26 27 28 29 30 31 32 33 34 35 36 37 38 39 40 41 42 43 44 45 46 47 48 49 50
981
ASUS44 KOUN 281610
RWROK

WEATHER ROUNDUP FOR OKLAHOMA
NATIONAL WEATHER SERVICE NORMAN OK
1100 AM CDT THU JUL 28 2016

NOTE: "FAIR" INDICATES FEW OR NO CLOUDS BELOW 12,000 FEET WITH NO
      SIGNIFICANT WEATHER AND/OR OBSTRUCTIONS TO VISIBILITY.

OKZ001>007-009>012-014-015-017-281700-
NORTHWEST OKLAHOMA AND THE PANHANDLE

CITY           SKY/WX    TMP DP  RH WIND       PRES   REMARKS
GAGE           SUNNY     85  65  51 NE7       30.06F
GUYMON         SUNNY     79  61  53 SE6       30.11F
ENID/WOODRING  MOSUNNY   91  70  49 N3        29.97S HX  97
$$

OKZ016-021>023-033>039-044-045-281700-
SOUTHWEST OKLAHOMA

CITY           SKY/WX    TMP DP  RH WIND       PRES   REMARKS
LAWTON/REGL    SUNNY     89  72  56 VRB5      29.98F HX  96
LAWTON/FT SILL SUNNY     88  74  63 SE5       29.97F HX  96
FREDERICK      SUNNY     87  72  60 VRB3      29.97F HX  93
CLINTON        SUNNY     90  67  46 NE8       30.05S HX  93
HOBART         SUNNY     89  73  59 E8        30.01F HX  97
ALTUS AFB      SUNNY     87  70  56 VRB3      29.99  HX  92
$$

OKZ018>020-024>031-281700-
CENTRAL OKLAHOMA

CITY           SKY/WX    TMP DP  RH WIND       PRES   REMARKS
OKLAHOMA CITY  MOSUNNY   86  73  65 VRB5      29.98F HX  93
OKC/WILEY POST SUNNY     87  72  60 N6        29.99F HX  93
STILLWATER     SUNNY     87  72  60 VRB6      29.97F HX  93
GUTHRIE        SUNNY     87  73  62 CALM      29.98F HX  94
$$

OKZ008-013-054>072-281700-
NORTHEAST OKLAHOMA

CITY           SKY/WX    TMP DP  RH WIND       PRES   REMARKS
TULSA          MOSUNNY   87  76  69 NW7       29.95F HX  97
TULSA/JONES    SUNNY     88  76  67 CALM      29.95F HX  99
PONCA CITY     SUNNY     89  70  53 CALM      29.96F HX  94
BARTLESVILLE   SUNNY     88  75  65 CALM      29.96F HX  97
MUSKOGEE       SUNNY     86  76  71 VRB3      29.97F HX  96
$$

OKZ032-040>043-046>053-073>077-281700-
SOUTH CENTRAL/SOUTHEAST OKLAHOMA

CITY           SKY/WX    TMP DP  RH WIND       PRES   REMARKS
ARDMORE/DWNTWN SUNNY     84  72  65 SW5       29.98F
MCALESTER      SUNNY     85  75  72 CALM      29.98F HX  93
$$





USA.gov is the U.S. government's official web portal to all federal, state and local government web resources and services.